Regional Weather Roundup
Issued by NWS Cleveland, OH

Home | Current Version | Previous Version | Text Only | Print | Product List | Glossary Off
Versions: 1 2 3 4 5 6 7 8 9 10 11 12 13 14 15 16 17 18 19 20 21 22 23 24 25 26 27 28 29 30 31 32 33 34 35 36 37 38 39 40 41 42 43 44 45 46 47 48 49 50

000
ASUS41 KCLE 301610
RWRCLE
OHIO REGIONAL WEATHER ROUNDUP
NATIONAL WEATHER SERVICE WILMINGTON, OH
1200 PM EDT TUE AUG 30 2016

NOTE: "FAIR" INDICATES FEW OR NO CLOUDS BELOW 12,000 FEET WITH NO
SIGNIFICANT WEATHER AND/OR OBSTRUCTIONS TO VISIBILITY.

OHZ001>008-015>018-024>027-034-035-043-044-301700-
   NORTHWEST OHIO

CITY           SKY/WX    TMP DP  RH WIND       PRES   REMARKS
DEFIANCE       FAIR      82  65  56 NW6       30.16S
FINDLAY        FAIR      82  62  50 CALM      30.16S
TOLEDO EXPRESS FAIR      78  62  57 S3        30.16S
TOLEDO EXEC    FAIR      79  62  56 S5        30.16F
LIMA           FAIR      80  68  66 VRB5      30.17S
$$

OHZ009>014-019>023-028>033-038-089-301700-
   NORTHEAST OHIO

CITY           SKY/WX    TMP DP  RH WIND       PRES   REMARKS
CLE-HOPKINS    FAIR      83  52  34 E5        30.19F
CLE-LAKEFRONT  FAIR      80  62  54 N6        30.16F
CUY CO. ARPT   NOT AVBL
LORAIN-ELYRIA  FAIR      79  54  41 MISG      30.18S
ASHTABULA      FAIR      77  60  55 CALM      30.19F
AKRON-CANTON   FAIR      82  49  31 NE6       30.19S
WOOSTER        FAIR      79  56  45 SE3       30.19F
MANSFIELD      FAIR      82  61  48 W5        30.19S
YOUNGSTOWN     FAIR      80  58  46 CALM      30.19S
$$

OHZ042-051>053-060>062-070>072-077>081-301700-
  SOUTHWEST OHIO

CITY           SKY/WX    TMP DP  RH WIND       PRES   REMARKS
CINC-COVINGTON FAIR      83  68  60 E6        30.16F
CINC-LUNKEN    FAIR      82  71  69 CALM      30.15F
HAMILTON       FAIR      85  66  53 E6        30.17S
DAYTON         PTSUNNY   82  65  56 S3        30.18S
WRIGHT-PAT AFB FAIR      82  62  50 E2        30.16F
DAYTON GENERAL FAIR      83  65  54 VRB5      30.17S
WILMINGTON     FAIR      81  65  58 CALM      30.17S
$$

OHZ036-037-039>041-045>050-054>059-063>069-073>076-082>088-301700-
  CENTRAL AND SOUTHEAST OHIO

CITY           SKY/WX    TMP DP  RH WIND       PRES   REMARKS
COLUMBUS       FAIR      81  61  50 SE6       30.16F
OSU AIRPORT    FAIR      83  62  49 S5        30.17S
BOLTON FIELD   SUNNY     81  64  57 S3        30.18F
RICKENBACK AFB FAIR      80  64  57 CALM      30.16F
NEWARK         FAIR      82  61  48 CALM      30.17F
MARION         FAIR      80  61  52 SW5       30.18S
LANCASTER      FAIR      84  63  49 NE5       30.17F
ZANESVILLE     FAIR      82  58  43 CALM      30.17F
NEW PHILLY     FAIR      84  46  26 S5        30.18F
$$




USA.gov is the U.S. government's official web portal to all federal, state and local government web resources and services.